Vertical_Velocity
-0 -1 -1 -0 1 -3 -2 2 9 -4 5 1 1 1 -2 -1 -0 -2 -1 -2 -2 -1
5 6 6 3 3 4 0 5 -0 -2 -4 -1 -5 -1 0 -0 -0 -2 -2 -4 -4 -4
-1 6 5 9 8 2 7 8 -2 -3 2 2 1 -1 -1 -2 -3 -3 -3 -4 -4 -3
-1 1 13 -6 2 8 8 -1 1 -6 1 1 2 1 -1 -3 -3 -1 -0 1 1 0
2 1 3 9 4 -0 -2 1 -0 3 -1 0 -2 4 -0 -0 -2 -0 -1 -1 2 -1
4 2 5 -0 3 -3 -1 -1 1 -1 -2 -2 0 2 1 0 0 -2 -2 -2 0 -1
3 4 2 -3 -0 1 2 1 -4 -0 -5 -0 -2 -1 -1 -3 -3 -0 0 -4 -2 -2
-0 -0 1 7 7 4 3 -1 -3 5 -4 -2 -1 1 1 -2 -2 -2 -1 -2 0 1
2 1 14 4 0 1 -0 -3 -4 -3 1 -1 0 4 -1 -1 1 1 -4 -1 -1 3
-1 7 2 0 -4 -7 -5 -5 -5 2 2 -2 -1 2 3 1 1 -1 -1 1 3 -2
0 5 -0 -7 -1 -6 -6 -2 -2 2 2 -1 -1 -1 2 -0 -0 -1 -1 -1 -0 -5
15 5 -4 -2 -10 -5 -2 -1 -1 3 2 1 1 2 -1 -0 -2 -0 1 -1 -4 -0
-4 -2 -8 -9 -2 2 2 1 2 -1 -1 -1 -2 -2 0 0 1 -1 -1 1 -2 1
-5 -10 -6 -1 -2 -0 0 -0 2 0 0 -2 -3 -1 -1 -1 -1 -1 -0 -0 -0 -2
Height
3129 3126 3123 3121 3120 3118 3114 3110 3106 3103 3101 3097 3092 3088 3082 3077 3072 3067 3061 3055 3049 3044
3125 3123 3121 3118 3116 3113 3109 3103 3099 3096 3093 3089 3083 3078 3073 3068 3062 3057 3051 3046 3040 3035
3118 3116 3112 3108 3105 3102 3099 3094 3088 3087 3084 3079 3073 3068 3063 3058 3052 3048 3042 3037 3031 3026
3109 3107 3102 3101 3095 3092 3089 3086 3082 3079 3076 3069 3064 3060 3055 3049 3044 3039 3033 3028 3023 3018
3102 3099 3095 3091 3088 3084 3080 3076 3073 3069 3064 3060 3057 3053 3047 3040 3034 3029 3025 3019 3014 3010
3092 3090 3087 3082 3079 3074 3069 3067 3064 3060 3056 3053 3048 3044 3039 3032 3027 3021 3016 3011 3006 3002
3087 3083 3078 3074 3069 3066 3063 3060 3057 3052 3049 3045 3040 3035 3029 3023 3017 3012 3008 3003 2998 2994
3080 3076 3071 3067 3063 3059 3055 3053 3050 3046 3041 3037 3030 3025 3019 3014 3008 3004 2999 2995 2991 2987
3072 3067 3064 3060 3054 3050 3048 3046 3042 3038 3034 3029 3022 3017 3012 3007 3002 2997 2992 2988 2984 2982
3063 3060 3055 3049 3046 3045 3041 3038 3035 3031 3026 3020 3014 3009 3003 2998 2994 2989 2984 2980 2977 2975
3054 3048 3042 3044 3042 3039 3035 3032 3027 3022 3017 3012 3007 3001 2996 2991 2986 2981 2977 2974 2971 2968
3042 3043 3041 3037 3034 3032 3029 3024 3019 3014 3009 3004 2999 2994 2989 2984 2978 2974 2971 2967 2964 2961
3040 3037 3033 3030 3028 3024 3020 3015 3011 3006 3000 2995 2990 2985 2981 2976 2971 2967 2964 2961 2958 2955
3033 3029 3026 3024 3021 3017 3012 3007 3003 2997 2992 2987 2982 2977 2973 2968 2964 2960 2957 2954 2951 2948